Regional Weather Roundup
Issued by NWS Green Bay, WI

Home | Current Version | Previous Version | Graphics & Text | Print | Product List | Glossary Off
Versions: 1 2 3 4 5 6 7 8 9 10 11 12 13 14 15 16 17 18 19 20 21 22 23 24 25 26 27 28 29 30 31 32 33 34 35 36 37 38 39 40 41 42 43 44 45 46 47 48 49 50

000
ASUS43 KGRB 281700
RWRGRB

NORTH-CENTRAL AND NORTHEAST WISCONSIN REGIONAL WEATHER ROUNDUP
NATIONAL WEATHER SERVICE GREEN BAY WI
1200 PM CDT THU MAY 28 2015

WIZ005-009-010>012-018-019-281800-
NORTH CENTRAL WISCONSIN

CITY           SKY/WX    TMP DP  RH WIND       PRES   REMARKS
IRONWOOD       MOSUNNY   81  55  41 SW9G18    30.02F
MANITOWISH WTR NOT AVBL
ARBOR VITAE    NOT AVBL
EAGLE RIVER    NOT AVBL
LAND O LAKES   NOT AVBL
RHINELANDER    SUNNY     80  55  42 SW12G20   30.13F
PHILLIPS       NOT AVBL
ANTIGO         NOT AVBL
TOMAHAWK       NOT AVBL
MERRILL        NOT AVBL
$$

WIZ013-073-281800-
NORTHEAST WISCONSIN

CITY           SKY/WX    TMP DP  RH WIND       PRES   REMARKS
IRON MOUNTAIN  SUNNY     72  59  63 VRB5      30.13F
MARINETTE      SUNNY     64  54  68 SE7       30.15F
$$

WIZ017-030-035>037-045-281800-
CENTRAL WISCONSIN

CITY           SKY/WX    TMP DP  RH WIND       PRES   REMARKS
MEDFORD        NOT AVBL
WAUSAU         SUNNY     78  59  51 SW8       30.12S
MOSINEE        SUNNY     75  64  69 SW8       30.15S
MARSHFIELD     SUNNY     81  57  43 SW7       30.13S
WISC RAPIDS    SUNNY     82  57  42 S13       30.14F
STEVENS POINT  NOT AVBL
WAUPACA        NOT AVBL
SHAWANO        NOT AVBL
CLINTONVILLE   NOT AVBL
$$

WIZ038-039-048-051-281800-
FOX VALLEY

CITY           SKY/WX    TMP DP  RH WIND       PRES   REMARKS
NWS GREEN BAY  SUNNY     79  65  62 S7        30.14F
APPLETON       SUNNY     77  59  53 SW8       30.16F
OSHKOSH        MOSUNNY   80  60  50 W6        30.15F
FOND DU LAC    MOSUNNY   79  61  53 MISG      30.16F
$$

WIZ022-050-052-281800-
EAST CENTRAL WISCONSIN

CITY           SKY/WX    TMP DP  RH WIND       PRES   REMARKS
STURGEON BAY   SUNNY     70  61  73 SE8       30.19S
MANITOWOC      NOT AVBL
SHEBOYGAN      SUNNY     79  61  53 SW7       30.17S
$$

LMZ563-521-522-541>543-281800-
LAKESHORE

STATION/POSITION TIME  TEMP    WIND        PRES    VSBY  WAVE
                       AIR SEA DIR/SP/G                  HT/PER
                 (UTC) (F)     (DEG/KT/KT) (MB)    (MI)  (FT/S)
SHEBOYGAN LKSHOR 1600   54     160/ 16/ 16 1021.9F
KEWAUNEE LKSHORE 1600   49     150/  5/  7 1021.1F
ALGOMA MARINA    1608          190/  2/  5   N/A
NORTHPORT PIER   1600   51     130/  9/ 10 1022.0R
N MID LAKE BUOY  1550   40 37  140/  4/  6 1022.7R         1/ 4
SISTER BAY LKSHO 1618   60     350/  5/  6   N/A
CHAMBERS ISLAND  1600   55     360/  6/  6 1021.7S
MENOMINEE LKSHOR 1600   54      30/  8/  9 1022.1R
$$



USA.gov is the U.S. government's official web portal to all federal, state and local government web resources and services.